Theta_e
299 298 299 299 300 300 302 303 302 300 299 299 299 300 300 300 300 301 300 300 300 299 298 296 295 295 295 295 295 296 295 295 294 294 293 292 291 290 290 290 289 290 290
295 296 296 297 297 298 299 300 301 302 301 299 299 298 298 299 299 299 300 299 299 299 298 296 296 294 294 294 294 295 295 295 294 294 292 292 290 289 289 289 289 289 289
292 293 294 294 294 294 296 298 298 299 299 300 300 299 297 296 297 298 299 299 299 299 298 297 296 295 294 293 293 293 294 294 294 293 292 291 290 289 288 288 289 288 289
288 288 289 290 291 290 291 293 297 298 298 298 298 299 298 298 296 295 296 297 297 298 297 297 296 295 294 293 293 292 293 293 293 293 291 290 289 288 288 288 288 288 288
287 287 286 287 287 288 288 288 289 292 298 298 298 298 297 298 297 296 294 294 294 295 297 297 297 296 295 294 293 292 292 292 291 291 290 289 288 288 288 288 287 287 288
286 286 286 286 286 286 286 287 287 287 288 293 298 298 299 298 296 295 293 294 293 293 294 295 295 297 295 295 293 292 292 292 291 291 290 290 290 289 288 288 287 287 287
285 285 285 285 285 286 285 285 285 286 286 286 288 293 296 297 297 295 293 291 292 294 292 292 294 295 294 294 293 292 291 291 290 291 291 292 291 290 288 288 287 287 286
285 285 285 285 285 285 285 285 285 284 285 285 286 286 289 294 294 293 292 292 290 291 294 292 291 292 294 294 292 291 291 290 289 289 289 289 289 288 287 286 286 285 285
284 284 284 284 284 285 285 285 285 285 284 284 284 285 285 287 292 293 289 290 291 290 290 291 289 289 289 290 291 290 290 289 288 288 287 287 286 285 285 285 284 284 283
283 283 282 282 283 283 284 284 285 285 285 284 284 284 285 285 286 292 292 289 289 289 288 288 288 291 289 288 287 287 287 288 287 286 285 285 284 283 284 284 283 283 282
279 280 281 281 281 281 282 283 283 284 284 285 284 284 284 284 285 286 292 289 288 288 287 287 287 286 286 286 284 286 288 287 287 286 285 284 283 282 283 282 284 282 280
277 277 277 277 278 279 279 281 282 282 282 284 283 284 284 284 284 285 288 291 289 286 286 286 286 286 285 284 284 284 284 284 285 285 284 283 282 283 282 283 281 281 280
275 274 273 273 272 273 273 274 274 277 278 281 281 281 283 284 284 284 285 289 289 286 286 286 286 286 285 283 284 284 283 282 284 284 283 282 283 282 282 281 279 279 278
270 270 270 269 269 269 269 269 270 271 273 275 277 279 280 281 283 283 284 286 288 287 285 286 286 285 285 283 283 283 282 282 283 283 282 282 282 280 282 279 280 278 277
266 266 265 265 265 266 266 267 268 269 270 272 273 275 277 279 281 281 282 284 286 286 284 285 284 283 284 282 282 283 281 281 280 280 281 281 280 282 279 278 278 276 276
262 262 263 263 263 263 264 264 266 267 269 271 273 274 276 278 280 281 282 281 283 284 283 283 282 282 284 282 282 282 280 279 279 279 280 280 281 280 279 278 276 276 275
262 262 262 262 262 262 263 263 264 265 267 269 271 273 275 277 280 282 282 282 283 283 283 282 282 281 283 282 282 282 279 280 280 279 280 282 281 279 278 276 276 275 275
263 263 263 262 262 262 263 263 263 264 265 266 268 270 273 278 280 282 283 283 282 283 284 281 281 281 282 281 281 281 280 281 280 281 281 281 280 279 278 277 274 274 274
264 263 263 264 264 263 263 264 264 264 265 266 267 270 273 277 279 280 282 283 282 282 284 281 281 281 281 281 281 280 280 280 281 280 279 279 279 278 275 274 274 274 273
263 264 264 265 265 265 265 265 265 266 266 267 268 270 274 276 277 279 282 283 282 282 283 281 280 280 281 281 279 279 279 280 280 279 278 278 276 274 275 274 273 273 272
264 264 265 266 266 266 267 267 268 268 268 269 270 273 275 276 277 279 281 283 282 281 282 280 279 280 281 281 280 278 279 279 278 278 277 275 275 274 272 272 272 272 271
264 266 266 267 267 268 269 270 271 272 272 272 274 274 275 276 277 279 281 281 281 281 280 280 280 280 280 280 279 277 278 277 277 276 274 274 273 273 272 272 271 271 271
266 266 267 268 268 269 270 271 272 273 273 274 274 274 275 276 277 279 280 281 280 280 279 280 280 279 279 278 277 276 276 276 276 275 275 274 273 271 271 271 271 270 270
267 267 267 268 269 269 270 271 272 272 273 273 274 274 275 276 277 278 279 279 278 278 277 277 277 278 277 276 275 274 275 275 274 274 273 272 271 271 270 270 270 270 270
267 267 268 268 269 269 270 270 271 271 272 272 272 273 274 275 276 276 276 276 276 276 275 276 276 275 274 274 274 274 274 274 274 273 271 271 270 270 270 270 270 269 269
268 267 268 268 269 270 270 270 270 271 271 271 271 272 272 273 274 274 274 274 274 274 274 273 273 273 273 273 273 273 273 272 271 270 270 270 270 270 270 269 269 269 269
Wind_Speed
26 25 23 23 23 23 20 21 23 24 23 24 27 30 33 38 43 50 58 61 61 59 59 59 56 55 52 51 47 44 40 37 35 31 29 28 29 29 25 22 18 15 15
27 26 27 26 25 24 23 23 22 24 25 25 25 29 32 35 39 46 51 59 63 63 63 62 60 58 57 54 52 48 46 42 39 38 33 32 32 30 27 24 21 18 18
25 25 25 26 26 26 26 25 25 26 25 25 25 27 31 34 38 43 46 51 58 63 64 65 62 61 60 59 56 53 49 47 43 41 39 36 35 33 29 26 24 20 18
27 27 26 26 27 29 28 27 25 25 26 27 26 26 27 31 36 40 45 49 54 57 63 65 63 65 63 62 58 57 53 51 47 45 42 38 36 34 31 28 27 22 21
31 31 32 30 29 30 30 31 29 26 26 27 28 29 28 30 33 37 41 46 52 56 57 62 65 66 66 63 61 60 57 53 52 48 47 43 40 37 36 32 29 25 23
32 33 33 36 36 32 32 34 35 32 30 30 31 29 31 32 33 34 36 40 43 51 57 60 63 63 68 64 64 60 60 57 57 53 50 47 43 40 37 33 30 27 23
28 30 33 36 38 39 40 37 36 37 36 35 33 32 33 33 30 33 33 38 41 44 50 55 60 62 67 65 66 62 62 59 56 54 52 48 45 41 38 35 32 28 24
29 30 33 36 39 41 42 43 41 40 39 39 38 36 37 37 32 30 29 34 42 45 45 49 56 60 64 64 66 65 65 61 59 58 52 44 41 39 37 33 30 27 26
38 39 38 38 39 40 43 45 47 47 46 43 41 41 41 41 39 33 28 33 41 47 45 47 52 56 61 62 63 65 65 64 60 58 52 45 43 40 36 34 31 28 25
44 43 43 43 43 43 43 45 48 49 50 51 50 45 43 44 41 39 32 32 41 45 46 48 51 53 53 57 57 60 64 67 63 58 51 46 43 41 39 35 31 28 25
43 48 49 50 52 52 51 48 48 50 53 54 54 53 50 46 45 42 37 34 41 43 46 49 51 50 51 52 48 56 61 63 61 55 48 46 44 41 38 36 34 29 26
39 45 52 57 60 60 60 58 55 53 54 57 58 59 56 51 46 43 40 39 36 43 45 46 47 46 44 45 44 52 50 54 57 53 51 50 47 44 39 35 30 28 26
52 57 56 54 57 59 59 60 57 59 57 57 56 53 59 54 49 45 42 39 35 41 45 47 47 44 38 41 43 52 44 51 53 52 54 54 47 41 34 33 29 27 27
56 55 52 48 48 47 47 46 44 47 49 47 46 48 46 46 49 45 43 37 34 35 38 45 47 45 38 40 41 48 50 53 52 54 54 49 44 39 35 32 30 29 27
52 50 47 44 43 43 41 40 40 42 41 44 45 42 40 39 44 32 33 33 29 31 35 43 43 41 38 40 43 49 50 49 46 49 49 47 42 36 34 32 30 27 25
43 41 39 40 42 41 42 44 41 40 41 43 45 45 49 46 42 37 33 32 26 21 36 43 41 41 38 39 42 46 47 47 46 50 47 43 39 37 34 31 29 26 24
41 42 42 40 40 40 40 41 44 41 35 35 37 39 41 46 40 39 39 34 28 24 44 44 41 40 37 41 42 45 47 48 46 44 41 41 40 36 33 29 27 26 22
38 39 41 41 40 40 40 40 40 39 38 38 31 30 31 31 35 36 33 33 30 30 41 42 41 40 38 41 44 47 48 48 44 44 44 42 39 36 33 30 28 23 20
37 39 39 40 41 41 42 42 41 40 38 39 38 28 23 24 26 29 28 37 32 33 35 40 39 38 39 45 49 51 51 48 44 43 39 37 36 33 28 25 23 21 17
36 36 36 37 38 39 38 37 38 36 35 34 30 27 15 17 20 21 26 36 30 29 31 38 36 39 35 40 45 47 46 46 43 39 35 34 29 27 25 23 21 17 15
32 35 34 34 34 34 35 36 36 34 32 29 23 17 17 20 19 16 19 30 26 24 31 37 39 32 31 37 41 41 42 43 39 35 33 31 26 22 21 20 18 16 14
28 28 27 27 27 28 29 30 31 30 25 22 21 19 17 15 15 14 20 23 19 22 27 33 31 31 29 34 35 35 38 36 35 33 29 25 22 21 20 19 16 14 13
23 23 23 22 21 21 21 19 16 15 16 15 14 12 10 7 7 13 16 16 13 13 17 24 28 28 28 25 24 27 32 34 31 27 24 22 20 20 18 16 14 13 13
20 20 20 20 19 19 19 19 17 14 12 10 8 5 3 3 9 11 11 11 11 14 19 20 21 22 19 18 21 25 26 25 23 21 19 18 19 17 17 15 13 12 13
19 19 19 19 20 20 19 19 18 16 15 12 10 7 6 8 9 7 8 10 13 16 19 20 19 19 22 26 27 25 22 20 18 16 18 18 16 16 14 13 12 13 15
22 20 21 21 21 21 21 20 20 18 17 16 13 12 12 13 14 15 17 19 22 22 22 23 23 24 23 22 19 18 16 14 16 17 16 15 14 12 11 12 12 14 17
Wind_Direction
349 349 348 347 347 347 335 318 306 292 285 278 276 271 266 263 258 250 245 244 241 239 237 236 236 235 234 233 232 231 231 230 232 234 230 229 228 226 232 238 243 249 255
350 348 347 345 342 341 342 340 327 311 300 290 276 270 267 262 261 260 254 247 245 242 240 238 236 234 234 234 233 232 231 230 231 234 233 229 227 229 234 237 241 248 255
344 341 338 339 339 338 336 334 337 332 319 301 288 278 272 268 264 262 260 257 252 248 245 243 239 238 236 234 233 232 231 230 228 232 232 230 229 232 233 238 244 247 257
342 339 337 336 335 335 335 329 323 326 328 325 313 293 278 273 269 264 263 260 257 254 250 248 245 242 240 238 235 235 231 231 227 225 229 229 230 230 232 236 245 248 256
334 335 335 333 331 329 330 330 329 322 311 315 319 318 302 284 273 270 266 263 260 258 254 252 248 246 243 241 240 236 235 231 229 225 225 226 227 229 232 234 238 245 251
325 324 323 322 324 327 325 323 325 326 324 314 299 305 306 306 291 276 272 268 264 259 257 254 251 249 247 242 241 239 240 237 233 229 227 229 231 233 235 237 239 244 250
311 312 315 317 318 320 322 323 322 322 322 322 315 303 296 296 298 290 274 271 265 260 259 255 254 252 249 244 241 238 239 237 237 240 234 233 234 235 235 236 238 243 247
300 300 303 306 307 310 313 315 317 318 319 319 315 313 304 296 294 294 278 266 265 262 258 259 256 254 252 247 241 237 236 234 233 234 232 233 237 235 233 234 237 240 243
299 299 299 298 297 298 301 304 308 311 312 313 314 312 308 302 296 289 279 269 262 260 258 256 255 252 253 251 244 239 235 234 231 232 229 227 228 230 229 229 228 234 240
304 301 299 297 295 295 294 295 298 300 303 306 306 307 306 299 297 290 280 268 264 261 258 255 253 254 254 252 245 241 235 232 225 224 223 222 224 227 228 229 227 230 233
302 300 297 296 296 295 293 291 292 292 295 296 298 298 300 299 295 290 282 266 262 257 249 250 252 251 246 245 232 241 240 234 228 225 223 220 218 216 221 222 230 228 233
296 296 296 297 295 293 293 291 289 289 288 289 292 293 293 295 294 289 283 274 262 251 245 245 249 252 245 237 225 232 229 225 227 219 218 218 214 215 215 224 226 233 236
296 294 293 293 293 293 292 291 290 287 286 284 285 286 288 288 291 287 281 275 266 244 245 248 248 253 249 221 225 218 217 217 223 218 217 217 215 214 214 221 222 232 237
293 293 293 292 291 289 287 286 283 282 281 279 278 276 277 280 283 282 280 275 269 255 243 247 244 246 247 236 224 213 211 214 220 219 216 214 212 207 214 214 223 228 233
297 295 294 293 291 290 286 283 278 275 272 274 270 268 271 271 274 275 274 275 270 262 240 236 234 229 231 221 211 205 206 205 204 210 209 206 205 207 206 210 219 224 231
304 300 298 295 294 292 290 289 285 277 275 269 266 264 269 268 268 266 263 268 265 255 232 223 218 219 223 210 204 199 199 201 204 206 205 203 204 204 205 210 217 224 232
306 303 299 295 292 290 289 287 288 292 282 273 268 265 262 265 262 260 263 265 262 239 225 220 215 212 216 202 202 199 191 207 208 204 202 205 205 202 205 207 217 223 230
311 309 304 299 295 292 289 286 286 285 287 288 281 273 264 262 257 251 256 251 252 231 222 214 211 210 210 197 201 202 201 204 203 204 204 203 203 202 204 211 214 220 229
313 310 307 306 303 297 293 290 285 283 282 284 292 290 278 247 252 255 243 233 240 234 227 209 211 206 204 204 208 208 208 199 202 203 202 200 199 200 201 210 220 226 235
314 308 310 308 305 302 297 290 288 285 284 287 287 288 289 275 269 260 234 223 233 232 223 206 200 202 214 213 209 211 207 202 204 203 200 199 195 200 207 213 220 229 243
319 317 319 317 314 311 308 302 299 296 295 296 293 296 285 279 280 269 246 217 228 230 213 203 200 208 218 217 217 215 210 204 203 202 197 192 199 200 205 214 223 235 250
319 322 326 327 328 325 319 315 308 305 305 308 311 301 294 278 263 256 210 210 227 227 214 209 212 216 218 220 219 216 210 204 197 193 190 193 192 199 210 217 226 240 259
337 337 340 343 343 342 341 340 334 326 314 303 301 300 307 291 247 227 226 226 231 217 211 207 212 207 210 213 214 212 202 192 189 188 190 192 196 204 212 221 232 247 268
355 354 354 357 0 2 3 3 4 3 356 349 343 336 317 186 182 179 194 198 193 186 184 187 195 194 191 187 178 175 177 177 178 182 185 192 201 207 215 224 240 261 280
15 15 15 15 17 19 22 26 28 28 29 31 38 51 81 122 126 133 152 160 162 161 159 162 164 163 161 164 167 166 167 173 176 179 190 198 203 212 221 235 254 270 282
34 35 36 36 35 33 34 36 39 40 42 47 58 74 93 103 105 114 122 129 131 134 137 140 143 150 154 154 157 165 167 170 183 191 196 202 211 222 234 247 259 276 288